Simultaneous Nadir Overpasses (SNOs) Predictions

Prediction of SNOs between NOAA-19 and METOP-C Satellite Orbit:

Table of predicted SNOs for the next 14.0 days since TLE Epoch: 11/6/2021
Index Date (NOAA-19) Time (NOAA-19) Lat,Lon (NOAA-19) SZA (NOAA-19 ) Date (METOP-C) Time (METOP-C) Lat,Lon (METOP-C) SZA (METOP-C ) Distance(km) Time Diff (sec)
1 11/08/2021 19:49:02 -80.76, 90.52 81.14 11/08/2021 19:50:07 -80.75, 94.72 80.76 75.16 65
2 11/08/2021 20:39:54 80.68, -99.30 99.05 11/08/2021 20:40:51 80.66, -99.41 99.05 2.74 57
3 11/08/2021 21:30:53 -80.67, 68.32 80.92 11/08/2021 21:31:32 -80.68, 68.22 80.90 2.42 39
4 11/08/2021 22:21:53 80.66,-124.37 99.10 11/08/2021 22:22:12 80.67,-124.54 99.10 3.14 19
5 11/08/2021 23:12:53 -80.66, 42.89 80.90 11/08/2021 23:12:54 -80.67, 42.74 80.90 2.87 1
6 11/09/2021 00:03:54 80.67,-150.16 99.10 11/09/2021 00:03:34 80.67,-150.01 99.10 2.95 20
7 11/09/2021 00:54:54 -80.67, 17.11 80.89 11/09/2021 00:54:16 -80.66, 17.27 80.90 3.04 38
8 11/09/2021 01:45:54 80.67,-175.60 99.13 11/09/2021 01:44:56 80.66,-175.48 99.10 2.63 58
9 11/09/2021 02:36:53 -80.66, -7.96 80.85 11/09/2021 02:35:37 -80.68, -7.86 80.85 2.59 76
10 11/20/2021 00:25:20 -80.68, 24.73 78.10 11/20/2021 00:26:20 -80.69, 24.74 78.06 1.40 60
11 11/20/2021 01:16:17 80.68,-167.95 101.92 11/20/2021 01:17:00 80.69,-167.90 101.95 1.96 43



Historial Predications of SNOs between NOAA-19 and METOP-C
